Waskish, MN

6:57 PM CDT on April 23, 2017 (GMT -0500)
Waskish Municipal

Weather History for KVWU - April, 2013

Change the Weather History Date:

Monday, April 1, 2013

  Actual Average (KBDE) Record (KBDE)
Temperature  
Mean Temperature 16 °F -  
Max Temperature 30 °F 41 °F 73 °F (1963)
Min Temperature 1 °F 19 °F -14 °F (1936)
Degree Days  
Heating Degree Days 50    
Moisture  
Dew Point 8 °F    
Average Humidity 74    
Maximum Humidity 92    
Minimum Humidity 51    
Precipitation  
Precipitation 0.00 in - - ()
Sea Level Pressure  
Sea Level Pressure 30.18 in    
Wind  
Wind Speed 7 mph (WSW)    
Max Wind Speed 17 mph    
Max Gust Speed 21 mph    
Visibility 10 miles    
Events      
Averages and records for this station are not official NWS values.
T = Trace of Precipitation, MM = Missing Value Source: NWS Daily Summary

Daily Weather History Graph

Daily Weather History Graph

Search for Another Location

Airport or City:

Trip Planner

Search our weather history database for the weather conditions in past years. The results will help you decide how hot, cold, wet, or windy it might be!

Date:

Astronomy

Apr. 01, 2013 Rise Set
Actual Time 6:55 AM CDT 7:48 PM CDT
Civil Twilight 6:24 AM CDT 8:20 PM CDT
Nautical Twilight 5:46 AM CDT 8:58 PM CDT
Astronomical Twilight 5:06 AM CDT 9:38 PM CDT
Moon 1:17 AM CDT (4/1) 10:22 AM CDT (4/1)
Length of Visible Light 13h 56m
Length of Day
12h 53m
Waning Gibbous, 67% of the Moon is Illuminated
Apr 1
Waning Gibbous
Apr 2
Last Quarter
Apr 10
New
Apr 18
First Quarter
Apr 25
Full

Hourly Weather History & Observations

Time (CDT) Temp. Windchill Dew Point Humidity Pressure Visibility Wind Dir Wind Speed Gust Speed Precip Events Conditions
12:08 AM 10.4 °F 2.2 °F 6.8 °F 85% 30.10 in 10.0 mi WNW 4.6 mph - N/A   Clear
12:28 AM 10.4 °F 4.0 °F 5.0 °F 79% 30.11 in 10.0 mi West 3.5 mph - N/A   Clear
12:48 AM 10.4 °F - 3.2 °F 73% 30.11 in 10.0 mi Calm Calm - N/A   Clear
1:08 AM 8.6 °F 2.0 °F 3.2 °F 79% 30.12 in 10.0 mi West 3.5 mph - N/A   Clear
1:28 AM 8.6 °F 0.1 °F 5.0 °F 85% 30.12 in 10.0 mi West 4.6 mph - N/A   Clear
1:48 AM 8.6 °F 2.0 °F 3.2 °F 79% 30.12 in 10.0 mi West 3.5 mph - N/A   Clear
2:08 AM 8.6 °F -2.6 °F 3.2 °F 79% 30.13 in 10.0 mi West 6.9 mph - N/A   Clear
2:28 AM 6.8 °F -2.0 °F 3.2 °F 85% 30.13 in 10.0 mi West 4.6 mph - N/A   Clear
3:08 AM 6.8 °F -2.0 °F 3.2 °F 85% 30.14 in 10.0 mi West 4.6 mph - N/A   Clear
3:28 AM 6.8 °F -3.5 °F 3.2 °F 85% 30.14 in 10.0 mi West 5.8 mph - N/A   Clear
3:48 AM 6.8 °F -2.0 °F 1.4 °F 79% 30.14 in 10.0 mi West 4.6 mph - N/A   Clear
4:08 AM 5.0 °F -4.1 °F 1.4 °F 85% 30.14 in 10.0 mi West 4.6 mph - N/A   Clear
4:28 AM 5.0 °F -4.1 °F 1.4 °F 85% 30.15 in 10.0 mi West 4.6 mph - N/A   Clear
4:48 AM 3.2 °F -9.1 °F 1.4 °F 92% 30.16 in 10.0 mi WSW 6.9 mph - N/A   Clear
5:09 AM 3.2 °F -7.8 °F -0.4 °F 85% 30.16 in 10.0 mi WSW 5.8 mph - N/A   Clear
5:28 AM 3.2 °F -7.8 °F -0.4 °F 85% 30.16 in 10.0 mi West 5.8 mph - N/A   Clear
5:48 AM 3.2 °F -7.8 °F -0.4 °F 85% 30.17 in 10.0 mi WSW 5.8 mph - N/A   Clear
6:08 AM 1.4 °F -8.3 °F -0.4 °F 92% 30.17 in 10.0 mi WSW 4.6 mph - N/A   Clear
6:28 AM 1.4 °F -9.9 °F -0.4 °F 92% 30.18 in 10.0 mi WSW 5.8 mph - N/A   Clear
6:49 AM 1.4 °F -8.3 °F -0.4 °F 92% 30.19 in 10.0 mi WSW 4.6 mph - N/A   Clear
7:08 AM 1.4 °F -8.3 °F -0.4 °F 92% 30.19 in 10.0 mi WSW 4.6 mph - N/A   Clear
7:28 AM 1.4 °F -11.3 °F -0.4 °F 92% 30.20 in 10.0 mi WSW 6.9 mph - N/A   Clear
7:49 AM 3.2 °F -10.3 °F -0.4 °F 85% 30.20 in 10.0 mi WSW 8.1 mph - N/A   Clear
8:08 AM 3.2 °F -10.3 °F 1.4 °F 92% 30.21 in 10.0 mi WSW 8.1 mph - N/A   Clear
8:28 AM 6.8 °F -4.8 °F 1.4 °F 79% 30.21 in 10.0 mi WSW 6.9 mph - N/A   Clear
8:49 AM 6.8 °F -3.5 °F 1.4 °F 79% 30.21 in 10.0 mi WSW 5.8 mph - N/A   Clear
9:08 AM 8.6 °F -2.6 °F 3.2 °F 79% 30.21 in 10.0 mi WSW 6.9 mph - N/A   Clear
9:28 AM 10.4 °F -0.4 °F 3.2 °F 73% 30.21 in 10.0 mi WSW 6.9 mph - N/A   Clear
9:49 AM 12.2 °F 1.7 °F 5.0 °F 73% 30.21 in 10.0 mi WSW 6.9 mph - N/A   Clear
10:08 AM 12.2 °F 1.7 °F 6.8 °F 79% 30.21 in 10.0 mi SW 6.9 mph - N/A   Clear
10:28 AM 15.8 °F 4.2 °F 6.8 °F 68% 30.21 in 10.0 mi SW 9.2 mph - N/A   Clear
10:49 AM 17.6 °F 6.4 °F 10.4 °F 73% 30.21 in 10.0 mi SW 9.2 mph - N/A   Clear
11:08 AM 19.4 °F 8.6 °F 10.4 °F 68% 30.21 in 10.0 mi WSW 9.2 mph - N/A   Clear
11:28 AM 19.4 °F 8.6 °F 10.4 °F 68% 30.21 in 10.0 mi SW 9.2 mph - N/A   Clear
11:49 AM 21.2 °F 10.1 °F 12.2 °F 68% 30.22 in 10.0 mi WSW 10.4 mph - N/A   Clear
12:08 PM 23.0 °F 11.1 °F 10.4 °F 59% 30.22 in 10.0 mi West 12.7 mph - N/A   Clear
12:28 PM 24.8 °F 12.9 °F 10.4 °F 54% 30.21 in 10.0 mi WSW 13.8 mph - N/A   Clear
12:49 PM 24.8 °F 12.9 °F 12.2 °F 59% 30.21 in 10.0 mi West 13.8 mph - N/A   Clear
1:08 PM 26.6 °F 15.2 °F 12.2 °F 55% 30.21 in 10.0 mi WSW 13.8 mph - N/A   Clear
1:28 PM 26.6 °F 15.2 °F 12.2 °F 55% 30.20 in 10.0 mi West 13.8 mph - N/A   Clear
1:48 PM 28.4 °F 16.6 °F 12.2 °F 51% 30.19 in 10.0 mi WSW 16.1 mph - N/A   Clear
2:08 PM 28.4 °F 16.6 °F 12.2 °F 51% 30.19 in 10.0 mi West 16.1 mph 20.7 mph N/A   Clear
2:28 PM 28.4 °F 16.2 °F 12.2 °F 51% 30.19 in 10.0 mi West 17.3 mph 20.7 mph N/A   Clear
2:48 PM 28.4 °F 18.0 °F 14.0 °F 55% 30.19 in 10.0 mi West 12.7 mph - N/A   Clear
3:08 PM 28.4 °F 17.5 °F 14.0 °F 55% 30.19 in 10.0 mi West 13.8 mph 20.7 mph N/A   Clear
3:28 PM 28.4 °F 18.0 °F 14.0 °F 55% 30.19 in 10.0 mi West 12.7 mph - N/A   Clear
3:48 PM 28.4 °F 17.5 °F 14.0 °F 55% 30.19 in 10.0 mi West 13.8 mph 19.6 mph N/A   Clear
4:08 PM 28.4 °F 17.0 °F 14.0 °F 55% 30.19 in 10.0 mi WSW 15.0 mph - N/A   Clear
4:28 PM 30.2 °F 20.2 °F 15.8 °F 55% 30.19 in 10.0 mi West 12.7 mph 17.3 mph N/A   Clear
4:48 PM 28.4 °F 18.0 °F 15.8 °F 59% 30.19 in 10.0 mi West 12.7 mph - N/A   Clear
5:08 PM 28.4 °F 18.5 °F 15.8 °F 59% 30.19 in 10.0 mi West 11.5 mph - N/A   Clear
5:29 PM 28.4 °F 18.5 °F 15.8 °F 59% 30.18 in 10.0 mi WSW 11.5 mph - N/A   Clear
5:48 PM 28.4 °F 19.1 °F 17.6 °F 64% 30.19 in 10.0 mi WSW 10.4 mph - N/A   Clear
6:08 PM 26.6 °F 16.8 °F 17.6 °F 69% 30.19 in 10.0 mi SW 10.4 mph - N/A   Clear
6:28 PM 26.6 °F 16.8 °F 17.6 °F 69% 30.18 in 10.0 mi WSW 10.4 mph - N/A   Clear
6:48 PM 24.8 °F 14.6 °F 15.8 °F 69% 30.18 in 10.0 mi WSW 10.4 mph - N/A   Clear
7:08 PM 23.0 °F 13.9 °F 15.8 °F 74% 30.18 in 10.0 mi SW 8.1 mph - N/A   Clear
7:29 PM 21.2 °F 10.9 °F 15.8 °F 80% 30.17 in 10.0 mi WSW 9.2 mph - N/A   Clear
7:48 PM 19.4 °F 9.5 °F 12.2 °F 74% 30.18 in 10.0 mi WSW 8.1 mph - N/A   Clear
8:08 PM 19.4 °F 8.6 °F 12.2 °F 74% 30.18 in 10.0 mi WSW 9.2 mph - N/A   Clear
8:29 PM 17.6 °F 6.4 °F 12.2 °F 79% 30.18 in 10.0 mi WSW 9.2 mph - N/A   Clear
8:48 PM 17.6 °F 7.3 °F 10.4 °F 73% 30.18 in 10.0 mi WSW 8.1 mph - N/A   Clear
9:08 PM 17.6 °F 6.4 °F 10.4 °F 73% 30.19 in 10.0 mi WSW 9.2 mph - N/A   Clear
9:29 PM 17.6 °F 7.3 °F 10.4 °F 73% 30.19 in 10.0 mi WSW 8.1 mph - N/A   Clear
9:48 PM 15.8 °F 6.1 °F 8.6 °F 73% 30.19 in 10.0 mi SW 6.9 mph - N/A   Clear
10:08 PM 14.0 °F 3.9 °F 8.6 °F 79% 30.19 in 10.0 mi SW 6.9 mph - N/A   Clear
10:29 PM 15.8 °F 5.1 °F 10.4 °F 79% 30.20 in 10.0 mi WSW 8.1 mph - N/A   Clear
10:48 PM 14.0 °F 2.0 °F 10.4 °F 86% 30.19 in 10.0 mi SW 9.2 mph - N/A   Clear
11:08 PM 14.0 °F 2.0 °F 10.4 °F 86% 30.20 in 10.0 mi SW 9.2 mph - N/A   Clear
11:29 PM 14.0 °F 2.9 °F 8.6 °F 79% 30.20 in 10.0 mi SW 8.1 mph - N/A   Clear
11:48 PM 14.0 °F 3.9 °F 8.6 °F 79% 30.19 in 10.0 mi WSW 6.9 mph - N/A   Clear